H1 CPF 2 NER 2021 8 31 9 243 01 glonass142 H2 2001801 9142 45358 2021 8 31 0 0 0 2021 9 3 23 45 0 900 1 1 0 0 0 1 H9 10 0 59457 0.00000 0 11771913.405 16613254.872 15392982.317 10 0 59457 900.00000 0 10108349.310 15434282.657 17638351.225 10 0 59457 1800.00000 0 8137468.618 14260997.774 19541798.510 10 0 59457 2700.00000 0 5893465.034 13149270.573 21066419.033 10 0 59457 3600.00000 0 3421594.444 12148809.624 22182633.395 10 0 59457 4500.00000 0 776549.492 11301065.587 22868758.528 10 0 59457 5400.00000 0 -1979558.900 10637498.783 23111427.865 10 0 59457 6300.00000 0 -4779531.063 10178282.728 22905853.181 10 0 59457 7200.00000 0 -7553623.929 9931497.671 22255923.002 10 0 59457 8100.00000 0 -10232208.188 9892847.924 21174135.347 10 0 59457 9000.00000 0 -12748428.308 10045915.117 19681365.403 10 0 59457 9900.00000 0 -15040755.960 10362937.204 17806471.744 10 0 59457 10800.00000 0 -17055331.511 10806081.103 15585747.624 10 0 59457 11700.00000 0 -18747996.586 11329156.108 13062226.809 10 0 59457 12600.00000 0 -20085933.011 11879696.435 10284856.420 10 0 59457 13500.00000 0 -21048839.687 12401325.480 7307551.938 10 0 59457 14400.00000 0 -21629597.892 12836301.959 4188152.149 10 0 59457 15300.00000 0 -21834396.878 13128140.068 987294.210 10 0 59457 16200.00000 0 -21682314.333 13224192.102 -2232769.155 10 0 59457 17100.00000 0 -21204369.373 13078083.227 -5409386.803 10 0 59457 18000.00000 0 -20442088.165 12651894.022 -8480736.090 10 0 59457 18900.00000 0 -19445643.112 11917996.985 -11387034.723 10 0 59457 19800.00000 0 -18271644.786 10860467.710 -14071712.967 10 0 59457 20700.00000 0 -16980680.547 9476009.682 -16482522.305 10 0 59457 21600.00000 0 -15634704.571 7774352.207 -18572558.265 10 0 59457 22500.00000 0 -14294390.099 5778103.497 -20301176.971 10 0 59457 23400.00000 0 -13016556.167 3522064.128 -21634787.265 10 0 59457 24300.00000 0 -11851777.529 1052028.828 -22547503.080 10 0 59457 25200.00000 0 -10842278.455 -1576873.824 -23021643.632 10 0 59457 26100.00000 0 -10020198.703 -4302234.805 -23048072.135 10 0 59457 27000.00000 0 -9406304.007 -7056725.831 -22626367.068 10 0 59457 27900.00000 0 -9009194.364 -9770670.294 -21764823.193 10 0 59457 28800.00000 0 -8825042.381 -12374717.133 -20480282.922 10 0 59457 29700.00000 0 -8837871.439 -14802506.857 -18797801.776 10 0 59457 30600.00000 0 -9020360.768 -16993219.343 -16750154.798 10 0 59457 31500.00000 0 -9335142.367 -18893897.975 -14377193.861 10 0 59457 32400.00000 0 -9736534.064 -20461454.256 -11725068.545 10 0 59457 33300.00000 0 -10172634.783 -21664270.343 -8845325.870 10 0 59457 34200.00000 0 -10587692.915 -22483333.771 -5793906.579 10 0 59457 35100.00000 0 -10924647.294 -22912858.251 -2630057.571 10 0 59457 36000.00000 0 -11127733.150 -22960365.902 584818.296 10 0 59457 36900.00000 0 -11145042.767 -22646228.776 3788352.521 10 0 59457 37800.00000 0 -10930932.616 -22002690.081 6918418.272 10 0 59457 38700.00000 0 -10448175.258 -21072407.219 9914331.362 10 0 59457 39600.00000 0 -9669765.174 -19906578.507 12718021.665 10 0 59457 40500.00000 0 -8580302.234 -18562732.717 15275152.640 10 0 59457 41400.00000 0 -7176894.144 -17102274.285 17536167.786 10 0 59457 42300.00000 0 -5469539.427 -15587887.025 19457244.286 10 0 59457 43200.00000 0 -3480973.916 -14080904.700 21001136.159 10 0 59457 44100.00000 0 -1245985.982 -12638757.927 22137891.325 10 0 59457 45000.00000 0 1189772.295 -11312603.536 22845429.335 10 0 59457 45900.00000 0 3771430.147 -10145234.747 23109969.127 10 0 59457 46800.00000 0 6436932.642 -9169358.813 22926298.817 10 0 59457 47700.00000 0 9119381.849 -8406313.593 22297882.233 10 0 59457 48600.00000 0 11749589.084 -7865276.357 21236799.845 10 0 59457 49500.00000 0 14258733.757 -7542997.772 19763524.508 10 0 59457 50400.00000 0 16581019.441 -7424072.304 17906535.495 10 0 59457 51300.00000 0 18656217.625 -7481733.914 15701777.195 10 0 59457 52200.00000 0 20431993.748 -7679143.946 13191971.797 10 0 59457 53100.00000 0 21865918.604 -7971117.355 10425798.298 10 0 59457 54000.00000 0 22927080.992 -8306214.696 7456952.856 10 0 59457 54900.00000 0 23597233.785 -8629111.615 4343108.156 10 0 59457 55800.00000 0 23871424.886 -8883145.376 1144791.865 10 0 59457 56700.00000 0 23758086.179 -9012930.105 -2075793.889 10 0 59457 57600.00000 0 23278576.423 -8966929.068 -5255988.546 10 0 59457 58500.00000 0 22466197.214 -8699873.863 -8333900.138 10 0 59457 59400.00000 0 21364723.619 -8174926.631 -11249618.459 10 0 59457 60300.00000 0 20026511.768 -7365492.241 -13946389.784 10 0 59457 61200.00000 0 18510263.748 -6256602.246 -16371729.215 10 0 59457 62100.00000 0 16878544.657 -4845810.711 -18478448.241 10 0 59457 63000.00000 0 15195157.069 -3143562.707 -20225576.980 10 0 59457 63900.00000 0 13522484.031 -1173018.908 -21579162.816 10 0 59457 64800.00000 0 11918912.703 1030657.358 -22512929.955 10 0 59457 65700.00000 0 10436446.987 3421521.452 -23008787.330 10 0 59457 66600.00000 0 9118609.199 5944526.564 -23057175.388 10 0 59457 67500.00000 0 7998718.233 8537590.936 -22657245.612 10 0 59457 68400.00000 0 7098615.531 11133967.279 -21816869.860 10 0 59457 69300.00000 0 6427891.155 13664815.849 -20552479.911 10 0 59457 70200.00000 0 5983640.998 16061874.333 -18888740.843 10 0 59457 71100.00000 0 5750763.836 18260113.775 -16858064.941 10 0 59457 72000.00000 0 5702784.203 20200270.273 -14499975.936 10 0 59457 72900.00000 0 5803165.020 21831147.622 -11860336.145 10 0 59457 73800.00000 0 6007053.372 23111595.584 -8990451.652 10 0 59457 74700.00000 0 6263384.755 24012082.047 -5946073.164 10 0 59457 75600.00000 0 6517256.104 24515794.386 -2786312.031 10 0 59457 76500.00000 0 6712466.763 24619225.030 427507.391 10 0 59457 77400.00000 0 6794119.642 24332217.769 3633036.588 10 0 59457 78300.00000 0 6711172.399 23677473.918 6768109.843 10 0 59457 79200.00000 0 6418830.754 22689539.937 9771945.982 10 0 59457 80100.00000 0 5880682.808 21413319.645 12586321.651 10 0 59457 81000.00000 0 5070484.207 19902173.883 15156693.802 10 0 59457 81900.00000 0 3973518.678 18215687.374 17433250.107 10 0 59457 82800.00000 0 2587476.240 16417196.191 19371867.509 10 0 59457 83700.00000 0 922811.499 14571178.881 20934961.118 10 0 59457 84600.00000 0 -997434.077 12740619.627 22092207.751 10 0 59457 85500.00000 0 -3138339.748 10984452.844 22821130.746 10 0 59458 0.00000 0 -5454314.957 9355194.934 23107535.291 10 0 59458 900.00000 0 -7890762.329 7896861.312 22945786.088 10 0 59458 1800.00000 0 -10386125.950 6643254.181 22338922.038 10 0 59458 2700.00000 0 -12874242.550 5616693.192 21298605.267 10 0 59458 3600.00000 0 -15286898.673 4827239.855 19844904.990 10 0 59458 4500.00000 0 -17556489.050 4272449.194 18005919.361 10 0 59458 5400.00000 0 -19618666.490 3937658.296 15817241.618 10 0 59458 6300.00000 0 -21414873.512 3796799.875 13321279.717 10 0 59458 7200.00000 0 -22894650.231 3813706.727 10566441.577 10 0 59458 8100.00000 0 -24017621.911 3943852.206 7606200.906 10 0 59458 9000.00000 0 -24755082.590 4136453.209 4498061.086 10 0 59458 9900.00000 0 -25091107.674 4336846.575 1302437.104 10 0 59458 10800.00000 0 -25023148.171 4489037.792 -1918522.612 10 0 59458 11700.00000 0 -24562080.913 4538313.263 -5102151.079 10 0 59458 12600.00000 0 -23731712.207 4433804.375 -8186489.842 10 0 59458 13500.00000 0 -22567755.569 4130893.393 -11111503.453 10 0 59458 14400.00000 0 -21116326.646 3593357.812 -13820256.672 10 0 59458 15300.00000 0 -19432018.967 2795160.898 -16260030.434 10 0 59458 16200.00000 0 -17575641.995 1721811.258 -18383354.089 10 0 59458 17100.00000 0 -15611717.150 371232.613 -20148933.264 10 0 59458 18000.00000 0 -13605837.613 -1245894.032 -21522454.962 10 0 59458 18900.00000 0 -11622003.131 -3106331.252 -22477254.269 10 0 59458 19800.00000 0 -9720041.774 -5175021.528 -22994829.955 10 0 59458 20700.00000 0 -7953226.602 -7406328.712 -23065199.352 10 0 59458 21600.00000 0 -6366186.549 -9745733.217 -22687086.175 10 0 59458 22500.00000 0 -4993198.116 -12131910.415 -21867938.226 10 0 59458 23400.00000 0 -3856928.281 -14499105.715 -20623775.186 10 0 59458 24300.00000 0 -2967679.749 -16779707.477 -18978869.965 10 0 59458 25200.00000 0 -2323168.544 -18906910.744 -16965270.172 10 0 59458 26100.00000 0 -1908841.515 -20817360.913 -14622169.357 10 0 59458 27000.00000 0 -1698718.683 -22453667.474 -11995140.457 10 0 59458 27900.00000 0 -1656723.309 -23766683.375 -9135246.496 10 0 59458 28800.00000 0 -1738442.246 -24717455.317 -6098046.038 10 0 59458 29700.00000 0 -1893241.104 -25278764.186 -2942512.829 10 0 59458 30600.00000 0 -2066643.969 -25436191.922 270109.290 10 0 59458 31500.00000 0 -2202876.531 -25188670.962 3477493.772 10 0 59458 32400.00000 0 -2247464.672 -24548494.060 6617437.978 10 0 59458 33300.00000 0 -2149778.494 -23540784.782 9629065.706 10 0 59458 34200.00000 0 -1865414.214 -22202451.461 12454002.347 10 0 59458 35100.00000 0 -1358313.321 -20580668.787 15037500.301 10 0 59458 36000.00000 0 -602529.495 -18730950.716 17329493.315 10 0 59458 36900.00000 0 416431.363 -16714895.160 19285559.885 10 0 59458 37800.00000 0 1700754.817 -14597694.289 20867777.840 10 0 59458 38700.00000 0 3239982.091 -12445513.646 22045454.300 10 0 59458 39600.00000 0 5011209.840 -10322848.598 22795717.543 10 0 59458 40500.00000 0 6979818.619 -8289967.275 23103959.847 10 0 59458 41400.00000 0 9100701.221 -6400545.459 22964123.087 10 0 59458 42300.00000 0 11319941.407 -4699591.016 22378821.471 10 0 59458 43200.00000 0 13576874.864 -3221743.432 21359298.801 10 0 59458 44100.00000 0 15806448.261 -1990018.612 19925220.365 10 0 59458 45000.00000 0 17941779.525 -1015050.859 18104302.649 10 0 59458 45900.00000 0 19916813.799 -294863.349 15931786.939 10 0 59458 46800.00000 0 21668965.030 184823.513 13449765.847 10 0 59458 47700.00000 0 23141633.114 449758.853 10706374.820 10 0 59458 48600.00000 0 24286491.241 535838.373 7754863.382 10 0 59458 49500.00000 0 25065447.168 487347.582 4652563.538 10 0 59458 50400.00000 0 25452195.382 354845.671 1459775.207 10 0 59458 51300.00000 0 25433294.096 192779.999 -1761409.561 10 0 59458 52200.00000 0 25008720.910 56932.971 -4948320.236 10 0 59458 53100.00000 0 24191882.922 1810.396 -8038934.870 10 0 59458 54000.00000 0 23009080.300 78083.245 -10973095.755 10 0 59458 54900.00000 0 21498445.518 330192.547 -13693689.036 10 0 59458 55800.00000 0 19708402.835 794220.273 -16147764.218 10 0 59458 56700.00000 0 17695712.971 1496117.702 -18287571.034 10 0 59458 57600.00000 0 15523185.449 2450367.494 -20071492.912 10 0 59458 58500.00000 0 13257155.049 3659137.064 -21464858.518 10 0 59458 59400.00000 0 10964828.550 5111959.950 -22440615.596 10 0 59458 60300.00000 0 8711613.037 6785959.408 -22979854.250 10 0 59458 61200.00000 0 6558537.590 8646605.398 -23072169.866 10 0 59458 62100.00000 0 4559875.763 10648973.728 -22715859.203 10 0 59458 63000.00000 0 2761067.461 12739454.942 -21917946.413 10 0 59458 63900.00000 0 1197026.067 14857841.652 -20694039.046 10 0 59458 64800.00000 0 -109099.901 16939707.265 -19068017.362 10 0 59458 65700.00000 0 -1146660.429 18918976.856 -17071563.357 10 0 59458 66600.00000 0 -1917704.058 20730582.911 -14743539.017 10 0 59458 67500.00000 0 -2436637.889 22313095.180 -12129226.089 10 0 59458 68400.00000 0 -2729363.718 23611214.978 -9279442.333 10 0 59458 69300.00000 0 -2831928.357 24578029.932 -6249551.618 10 0 59458 70200.00000 0 -2788746.531 25176935.258 -3098387.232 10 0 59458 71100.00000 0 -2650472.599 25383141.623 112890.578 10 0 59458 72000.00000 0 -2471611.859 25184706.970 3321980.466 10 0 59458 72900.00000 0 -2307973.005 24583049.631 6466646.179 10 0 59458 73800.00000 0 -2214069.805 23592921.732 9485919.784 10 0 59458 74700.00000 0 -2240581.887 22241844.434 12321278.630 10 0 59458 75600.00000 0 -2431981.929 20569028.867 14917773.617 10 0 59458 76500.00000 0 -2824429.356 18623827.926 17225087.412 10 0 59458 77400.00000 0 -3444019.358 16463783.432 19198502.661 10 0 59458 78300.00000 0 -4305461.151 14152349.677 20799762.207 10 0 59458 79200.00000 0 -5411241.497 11756387.548 21997805.435 10 0 59458 80100.00000 0 -6751309.344 9343532.714 22769367.122 10 0 59458 81000.00000 0 -8303295.863 6979546.353 23099427.783 10 0 59458 81900.00000 0 -10033262.081 4725757.421 22981507.090 10 0 59458 82800.00000 0 -11896944.419 2636701.793 22417794.685 10 0 59458 83700.00000 0 -13841447.825 758055.417 21419115.567 10 0 59458 84600.00000 0 -15807317.553 -875053.445 20004730.056 10 0 59458 85500.00000 0 -17730904.599 -2239283.166 18201971.354 10 0 59459 0.00000 0 -19546927.328 -3323817.830 16045726.689 10 0 59459 900.00000 0 -21191123.107 -4130575.752 13577770.612 10 0 59459 1800.00000 0 -22602879.739 -4673879.375 10845963.152 10 0 59459 2700.00000 0 -23727735.800 -4979599.742 7903326.374 10 0 59459 3600.00000 0 -24519645.680 -5083812.847 4807017.480 10 0 59459 4500.00000 0 -24942912.535 -5031023.967 1617217.816 10 0 59459 5400.00000 0 -24973707.405 -4872035.888 -1604040.410 10 0 59459 6300.00000 0 -24601109.314 -4661551.754 -4794086.510 10 0 59459 7200.00000 0 -23827621.507 -4455614.932 -7890838.287 10 0 59459 8100.00000 0 -22669141.134 -4308995.474 -10834018.856 10 0 59459 9000.00000 0 -21154382.916 -4272635.136 -13566338.591 10 0 59459 9900.00000 0 -19323780.590 -4391260.491 -16034618.133 10 0 59459 10800.00000 0 -17227912.141 -4701266.486 -18190829.808 10 0 59459 11700.00000 0 -14925514.940 -5228961.181 -19993036.608 10 0 59459 12600.00000 0 -12481174.299 -5989246.875 -21406210.106 10 0 59459 13500.00000 0 -9962782.464 -6984794.166 -22402911.373 10 0 59459 14400.00000 0 -7438874.498 -8205744.448 -22963821.916 10 0 59459 15300.00000 0 -4975952.448 -9629953.856 -23078114.662 10 0 59459 16200.00000 0 -2635909.228 -11223768.782 -22743658.369 10 0 59459 17100.00000 0 -473659.134 -12943300.644 -21967052.038 10 0 59459 18000.00000 0 1464927.004 -14736146.589 -20763489.223 10 0 59459 18900.00000 0 3144697.135 -16543484.082 -19156455.389 10 0 59459 19800.00000 0 4542435.398 -18302451.781 -17177264.574 10 0 59459 20700.00000 0 5647572.436 -19948716.952 -14864444.716 10 0 59459 21600.00000 0 6462360.883 -21419122.054 -12262983.836 10 0 59459 22500.00000 0 7001510.655 -22654299.739 -9423451.870 10 0 59459 23400.00000 0 7291301.235 -23601146.845 -6401015.460 10 0 59459 24300.00000 0 7368210.106 -24215053.941 -3254364.964 10 0 59459 25200.00000 0 7277116.613 -24461797.222 -44574.643 10 0 59459 26100.00000 0 7069158.229 -24319013.727 3166081.638 10 0 59459 27000.00000 0 6799330.611 -23777198.371 6315336.184 10 0 59459 27900.00000 0 6523933.395 -22840181.255 9342131.368 10 0 59459 28800.00000 0 6297969.866 -21525065.506 12187798.399 10 0 59459 29700.00000 0 6172610.374 -19861628.300 14797188.427 10 0 59459 30600.00000 0 6192826.459 -17891210.008 17119734.615 10 0 59459 31500.00000 0 6395295.292 -15665137.565 19110425.109 10 0 59459 32400.00000 0 6806662.633 -13242747.267 20730668.886 10 0 59459 33300.00000 0 7442237.497 -10689088.539 21949038.438 10 0 59459 34200.00000 0 8305173.711 -8072403.312 22741875.606 10 0 59459 35100.00000 0 9386173.373 -5461484.599 23093749.401 10 0 59459 36000.00000 0 10663725.649 -2923022.780 22997757.278 10 0 59459 36900.00000 0 12104872.159 -519048.631 22455664.033 10 0 59459 37800.00000 0 13666468.396 1695421.869 21477875.339 10 0 59459 38700.00000 0 15296890.018 3674444.127 20083245.825 10 0 59459 39600.00000 0 16938114.114 5382818.127 18298724.489 10 0 59459 40500.00000 0 18528089.723 6797309.187 16158843.301 10 0 59459 41400.00000 0 20003299.416 7907365.825 13705057.690 10 0 59459 42300.00000 0 21301405.165 8715304.958 10984950.688 10 0 59459 43200.00000 0 22363867.742 9235956.949 8051315.244 10 0 59459 44100.00000 0 23138429.343 9495785.652 4961131.860 10 0 59459 45000.00000 0 23581354.367 9531520.756 1774461.224 10 0 59459 45900.00000 0 23659333.065 9388360.569 -1446726.602 10 0 59459 46800.00000 0 23350966.659 9117821.797 -4639763.187 10 0 59459 47700.00000 0 22647770.083 8775328.034 -7742508.583 10 0 59459 48600.00000 0 21554648.867 8417640.076 -10694569.213 10 0 59459 49500.00000 0 20089828.976 8100238.006 -13438482.099 10 0 59459 50400.00000 0 18284241.742 7874767.092 -15920841.299 10 0 59459 51300.00000 0 16180389.170 7786656.838 -18093343.853 10 0 59459 52200.00000 0 13830736.902 7873015.005 -19913734.279 10 0 59459 53100.00000 0 11295702.211 8160886.555 -21346628.837 10 0 59459 54000.00000 0 8641321.246 8665951.788 -22364203.540 10 0 59459 54900.00000 0 5936693.089 9391719.134 -22946732.714 10 0 59459 55800.00000 0 3251307.448 10329246.916 -23082968.021 10 0 59459 56700.00000 0 652367.187 11457405.987 -22770351.124 10 0 59459 57600.00000 0 -1797783.084 12743672.223 -22015056.427 10 0 59459 58500.00000 0 -4044015.913 14145415.520 -20831863.642 10 0 59459 59400.00000 0 -6040470.127 15611631.057 -19243863.148 10 0 59459 60300.00000 0 -7752206.143 17085040.097 -17282000.283 10 0 59459 61200.00000 0 -9156399.902 18504471.982 -14984467.770 10 0 59459 62100.00000 0 -10243027.408 19807427.336 -12395958.325 10 0 59459 63000.00000 0 -11015013.204 20932714.859 -9566792.123 10 0 59459 63900.00000 0 -11487838.426 21823051.000 -6551936.343 10 0 59459 64800.00000 0 -11688626.846 22427513.441 -3409935.927 10 0 59459 65700.00000 0 -11654749.048 22703745.464 -201776.466 10 0 59459 66600.00000 0 -11432004.919 22619818.757 3010298.498 10 0 59459 67500.00000 0 -11072462.245 22155676.608 6163992.769 10 0 59459 68400.00000 0 -10632043.399 21304097.012 9198162.043 10 0 59459 69300.00000 0 -10167962.381 20071135.378 12053994.404 10 0 59459 70200.00000 0 -9736120.542 18476028.190 14676144.236 10 0 59459 71100.00000 0 -9388570.751 16550561.381 17013798.080 10 0 59459 72000.00000 0 -9171156.654 14337929.399 19021652.329 10 0 59459 72900.00000 0 -9121426.170 11891131.879 20660784.616 10 0 59459 73800.00000 0 -9266906.822 9270973.739 21899402.800 10 0 59459 74700.00000 0 -9623815.315 6543750.901 22713457.703 10 0 59459 75600.00000 0 -10196255.792 3778716.493 23087108.348 10 0 59459 76500.00000 0 -10975940.914 1045431.347 23013031.019 10 0 59459 77400.00000 0 -11942448.282 -1588892.481 22492566.188 10 0 59459 78300.00000 0 -13064002.561 -4061946.294 21535700.171 10 0 59459 79200.00000 0 -14298751.833 -6318672.493 20160881.272 10 0 59459 80100.00000 0 -15596486.047 -8313308.809 18394673.082 10 0 59459 81000.00000 0 -16900726.813 -10011044.712 16271250.599 10 0 59459 81900.00000 0 -18151101.993 -11389221.479 13831747.753 10 0 59459 82800.00000 0 -19285906.127 -12438026.096 11123467.939 10 0 59459 83700.00000 0 -20244739.462 -13160650.168 8198971.949 10 0 59459 84600.00000 0 -20971114.471 -13572907.372 5115060.314 10 0 59459 85500.00000 0 -21414919.554 -13702325.694 1931669.621 10 0 59460 0.00000 0 -21534635.222 -13586753.035 -1289295.632 10 0 59460 900.00000 0 -21299207.706 -13272535.520 -4485172.923 10 0 59460 1800.00000 0 -20689500.760 -12812346.049 -7593767.953 10 0 59460 2700.00000 0 -19699260.966 -12262756.020 -10554573.809 10 0 59460 3600.00000 0 -18335556.653 -11681653.681 -13309957.359 10 0 59460 4500.00000 0 -16618669.317 -11125619.715 -15806289.051 10 0 59460 5400.00000 0 -14581441.816 -10647372.051 -17994993.279 10 0 59460 6300.00000 0 -12268109.839 -10293389.031 -19833498.302 10 0 59460 7200.00000 0 -9732665.343 -10101812.191 -21286066.768 10 0 59460 8100.00000 0 -7036820.217 -10100717.850 -22324490.730 10 0 59460 9000.00000 0 -4247655.137 -10306830.808 -22928637.797 10 0 59460 9900.00000 0 -1435051.778 -10724734.503 -23086838.186 10 0 59460 10800.00000 0 1330984.813 -11346610.831 -22796105.685 10 0 59460 11700.00000 0 3983002.457 -12152520.380 -22062188.803 10 0 59460 12600.00000 0 6458665.760 -13111210.933 -20899451.668 10 0 59460 13500.00000 0 8703101.781 -14181419.899 -19330587.486 10 0 59460 14400.00000 0 10670930.894 -15313615.527 -17386170.530 10 0 59460 15300.00000 0 12327899.467 -16452103.358 -15104055.718 10 0 59460 16200.00000 0 13652047.853 -17537409.063 -12528637.695 10 0 59460 17100.00000 0 14634366.694 -18508837.249 -9709983.990 10 0 59460 18000.00000 0 15278915.847 -19307098.441 -6702859.332 10 0 59460 18900.00000 0 15602402.865 -19876893.660 -3565660.222 10 0 59460 19800.00000 0 15633240.498 -20169347.831 -359280.574 10 0 59460 20700.00000 0 15410124.381 -20144189.674 2854069.314 10 0 59460 21600.00000 0 14980192.127 -19771586.426 6012067.511 10 0 59460 22500.00000 0 14396842.361 -19033556.277 9053485.576 10 0 59460 23400.00000 0 13717306.233 -17924899.148 11919370.742 10 0 59460 24300.00000 0 13000074.079 -16453606.562 14554182.584 10 0 59460 25200.00000 0 12302285.652 -14640733.075 16906862.634 10 0 59460 26100.00000 0 11677193.583 -12519734.091 18931816.792 10 0 59460 27000.00000 0 11171806.415 -10135296.911 20589792.250 10 0 59460 27900.00000 0 10824809.889 -7541712.685 21848632.766 10 0 59460 28800.00000 0 10664853.441 -4800855.839 22683898.325 10 0 59460 29700.00000 0 10709273.643 -1979853.569 23079337.805 10 0 59460 30600.00000 0 10963308.192 851459.386 23027205.845 10 0 59460 31500.00000 0 11419833.750 3623196.457 22528417.823 10 0 59460 32400.00000 0 12059639.269 6268076.752 21592539.677 10 0 59460 33300.00000 0 12852224.209 8723975.348 20237612.151 10 0 59460 34200.00000 0 13757089.227 10936261.417 18489812.005 10 0 59460 35100.00000 0 14725466.259 12859827.830 16382955.691 10 0 59460 36000.00000 0 15702416.338 14460728.245 13957853.929 10 0 59460 36900.00000 0 16629207.713 15717353.630 11261528.636 10 0 59460 37800.00000 0 17445874.663 16621099.243 8346306.484 10 0 59460 38700.00000 0 18093849.248 17176494.154 5268805.951 10 0 59460 39600.00000 0 18518554.617 17400787.922 2088837.342 10 0 59460 40500.00000 0 18671849.673 17323011.973 -1131762.808 10 0 59460 41400.00000 0 18514220.695 16982555.571 -4330339.907 10 0 59460 42300.00000 0 18016626.007 16427316.902 -7444647.685 10 0 59460 43200.00000 0 17161914.271 15711508.152 -10414068.086 10 0 59460 44100.00000 0 15945755.022 14893208.164 -13180799.873 10 0 59460 45000.00000 0 14377040.808 14031767.140 -15690991.764 10 0 59460 45900.00000 0 12477742.766 13185174.099 -17895797.231 10 0 59460 46800.00000 0 10282224.677 12407499.255 -19752329.821 10 0 59460 47700.00000 0 7836043.604 11746520.092 -21224499.964 10 0 59460 48600.00000 0 5194286.825 11241631.888 -22283716.999 10 0 59460 49500.00000 0 2419514.237 10922131.013 -22909442.903 10 0 59460 50400.00000 0 -420607.999 10805943.396 -23089587.340 10 0 59460 51300.00000 0 -3255884.169 10898851.369 -22820736.863 10 0 59460 52200.00000 0 -6016269.037 11194251.013 -22108214.408 10 0 59460 53100.00000 0 -8634539.968 11673449.543 -20965968.461 10 0 59460 54000.00000 0 -11048850.604 12306489.546 -19416294.584 10 0 59460 54900.00000 0 -13205060.642 13053464.686 -17489395.097 10 0 59460 55800.00000 0 -15058745.687 13866270.826 -15222785.841 10 0 59460 56700.00000 0 -16576804.750 14690718.276 -12660561.786 10 0 59460 57600.00000 0 -17738599.788 15468915.745 -9852535.946 10 0 59460 58500.00000 0 -18536581.259 16141825.199 -6853268.530 10 0 59460 59400.00000 0 -18976375.229 16651879.713 -3721005.382 10 0 59460 60300.00000 0 -19076330.081 16945553.834 -516546.408 10 0 59460 61200.00000 0 -18866543.407 16975778.039 2697933.768 10 0 59460 62100.00000 0 -18387411.382 16704095.527 5860089.994 10 0 59460 63000.00000 0 -17687762.758 16102470.457 8908612.298 10 0 59460 63900.00000 0 -16822656.795 15154671.464 11784409.720 10 0 59460 64800.00000 0 -15850938.266 13857172.109 14431749.721 10 0 59460 65700.00000 0 -14832652.513 12219530.026 16799331.510 10 0 59460 66600.00000 0 -13826429.100 10264228.359 18841273.086 10 0 59460 67500.00000 0 -12886943.587 8025985.199 20517993.642 10 0 59460 68400.00000 0 -12062563.473 5550558.756 21796975.054 10 0 59460 69300.00000 0 -11393276.476 2893096.737 22653388.381 10 0 59460 70200.00000 0 -10908987.538 116097.070 23070573.890 10 0 59460 71100.00000 0 -10628255.527 -2712936.963 23040365.689 10 0 59460 72000.00000 0 -10557522.499 -5524051.390 22563254.705 10 0 59460 72900.00000 0 -10690867.943 -8247501.633 21648386.629 10 0 59460 73800.00000 0 -11010298.730 -10816409.029 20313394.254 10 0 59460 74700.00000 0 -11486563.258 -13169304.568 18584066.602 10 0 59460 75600.00000 0 -12080456.374 -15252455.048 16493860.167 10 0 59460 76500.00000 0 -12744561.046 -17021875.388 14083260.586 10 0 59460 77400.00000 0 -13425354.174 -18444943.459 11399006.039 10 0 59460 78300.00000 0 -14065588.319 -19501550.043 8493186.480 10 0 59460 79200.00000 0 -14606849.039 -20184735.728 5422235.491 10 0 59460 80100.00000 0 -14992179.607 -20500787.855 2245834.068 10 0 59460 81000.00000 0 -15168661.592 -20468793.398 -974252.304 10 0 59460 81900.00000 0 -15089841.172 -20119666.659 -4175380.324 10 0 59460 82800.00000 0 -14717897.283 -19494692.997 -7295254.979 10 0 59460 83700.00000 0 -14025458.430 -18643650.539 -10273150.340 10 0 59460 84600.00000 0 -12996989.795 -17622589.826 -13051100.295 10 0 59460 85500.00000 0 -11629690.536 -16491365.997 -15575034.939 99